Time,TemperatureF,DewpointF,PressureIn,WindDirection,WindDirectionDegrees,WindSpeedMPH,WindSpeedGustMPH,Humidity,HourlyPrecipIn,Conditions,Clouds,dailyrainin,SoftwareType,DateUTC
2013-03-04 00:00:00,24.7,14.6,29.79,ENE,71,6.0,6.0,65,0.00,,,0.00,Wunderground v.1.12,2013-03-04 05:00:00,
2013-03-04 00:01:00,24.7,14.6,29.79,East,86,3.0,5.0,65,0.00,,,0.00,Wunderground v.1.12,2013-03-04 05:01:00,
2013-03-04 00:02:00,24.7,14.2,29.79,ESE,113,4.0,12.0,64,0.00,,,0.00,Wunderground v.1.12,2013-03-04 05:02:00,
2013-03-04 00:06:00,24.5,14.4,29.79,ENE,73,3.0,6.0,65,0.00,,,0.00,Wunderground v.1.12,2013-03-04 05:06:00,
2013-03-04 00:07:00,24.7,14.2,29.79,ESE,113,4.0,12.0,64,0.00,,,0.00,Wunderground v.1.12,2013-03-04 05:07:00,
2013-03-04 00:12:00,24.7,14.2,29.79,NE,41,5.0,5.0,64,0.00,,,0.00,Wunderground v.1.12,2013-03-04 05:12:00,
2013-03-04 00:17:00,24.8,14.3,29.80,East,90,5.0,11.0,64,0.00,,,0.00,Wunderground v.1.12,2013-03-04 05:17:00,
2013-03-04 00:19:00,24.7,14.2,29.79,ESE,122,6.0,7.0,64,0.00,,,0.00,Wunderground v.1.12,2013-03-04 05:19:00,
2013-03-04 00:22:00,24.8,14.3,29.80,East,90,4.0,12.0,64,0.00,,,0.00,Wunderground v.1.12,2013-03-04 05:22:00,
2013-03-04 00:24:00,24.8,14.7,29.79,ESE,111,9.0,9.0,65,0.00,,,0.00,Wunderground v.1.12,2013-03-04 05:24:00,
2013-03-04 00:27:00,24.8,14.3,29.80,ENE,68,3.0,7.0,64,0.00,,,0.00,Wunderground v.1.12,2013-03-04 05:27:00,
2013-03-04 00:29:00,24.8,14.7,29.80,NE,49,4.0,6.0,65,0.00,,,0.00,Wunderground v.1.12,2013-03-04 05:29:00,
2013-03-04 00:32:00,24.8,14.7,29.80,ESE,113,2.0,7.0,65,0.00,,,0.00,Wunderground v.1.12,2013-03-04 05:32:00,
2013-03-04 00:34:00,24.8,14.3,29.80,ENE,68,3.0,5.0,64,0.00,,,0.00,Wunderground v.1.12,2013-03-04 05:34:00,
2013-03-04 00:37:00,24.8,14.7,29.80,ESE,113,4.0,9.0,65,0.00,,,0.00,Wunderground v.1.12,2013-03-04 05:37:00,
2013-03-04 00:39:00,24.8,14.3,29.80,ESE,108,1.0,5.0,64,0.00,,,0.00,Wunderground v.1.12,2013-03-04 05:39:00,
2013-03-04 00:42:00,24.8,14.7,29.80,ESE,113,3.0,7.0,65,0.00,,,0.00,Wunderground v.1.12,2013-03-04 05:42:00,
2013-03-04 00:44:00,24.8,14.7,29.80,SE,126,3.0,5.0,65,0.00,,,0.00,Wunderground v.1.12,2013-03-04 05:44:00,
2013-03-04 00:47:00,25.0,14.9,29.80,East,90,3.0,6.0,65,0.00,,,0.00,Wunderground v.1.12,2013-03-04 05:47:00,
2013-03-04 00:49:00,24.8,14.7,29.80,East,88,2.0,3.0,65,0.00,,,0.00,Wunderground v.1.12,2013-03-04 05:49:00,
2013-03-04 00:52:00,25.0,14.5,29.80,East,90,4.0,10.0,64,0.00,,,0.00,Wunderground v.1.12,2013-03-04 05:52:00,
2013-03-04 00:55:00,25.0,14.9,29.80,East,96,6.0,6.0,65,0.00,,,0.00,Wunderground v.1.12,2013-03-04 05:55:00,
2013-03-04 00:57:00,25.0,14.9,29.80,ENE,68,3.0,9.0,65,0.00,,,0.00,Wunderground v.1.12,2013-03-04 05:57:00,
2013-03-04 01:01:00,25.0,14.5,29.80,NE,44,3.0,4.0,64,0.00,,,0.00,Wunderground v.1.12,2013-03-04 06:01:00,
2013-03-04 01:02:00,25.0,14.9,29.80,ENE,68,3.0,10.0,65,0.00,,,0.00,Wunderground v.1.12,2013-03-04 06:02:00,
2013-03-04 01:07:00,25.0,14.9,29.80,NE,47,3.0,4.0,65,0.00,,,0.00,Wunderground v.1.12,2013-03-04 06:07:00,
2013-03-04 01:12:00,25.0,14.9,29.80,North,355,2.0,3.0,65,0.00,,,0.00,Wunderground v.1.12,2013-03-04 06:12:00,
2013-03-04 01:17:00,25.0,14.5,29.80,ESE,106,1.0,4.0,64,0.00,,,0.00,Wunderground v.1.12,2013-03-04 06:17:00,
2013-03-04 01:22:00,24.8,14.3,29.80,NE,35,3.0,5.0,64,0.00,,,0.00,Wunderground v.1.12,2013-03-04 06:22:00,
2013-03-04 01:27:00,24.8,14.7,29.80,ENE,68,4.0,8.0,65,0.00,,,0.00,Wunderground v.1.12,2013-03-04 06:27:00,
2013-03-04 01:29:00,24.8,14.3,29.80,East,80,5.0,5.0,64,0.00,,,0.00,Wunderground v.1.12,2013-03-04 06:29:00,
2013-03-04 01:32:00,24.8,14.7,29.80,ENE,68,4.0,7.0,65,0.00,,,0.00,Wunderground v.1.12,2013-03-04 06:32:00,
2013-03-04 01:34:00,24.8,14.7,29.80,ENE,69,4.0,4.0,65,0.00,,,0.00,Wunderground v.1.12,2013-03-04 06:34:00,
2013-03-04 01:37:00,24.7,14.6,29.80,ESE,113,4.0,11.0,65,0.00,,,0.00,Wunderground v.1.12,2013-03-04 06:37:00,
2013-03-04 01:39:00,24.8,14.7,29.80,ENE,68,1.0,7.0,65,0.00,,,0.00,Wunderground v.1.12,2013-03-04 06:39:00,
2013-03-04 01:42:00,24.7,14.6,29.80,ESE,113,5.0,11.0,65,0.00,,,0.00,Wunderground v.1.12,2013-03-04 06:42:00,
2013-03-04 01:45:00,24.7,14.6,29.80,SE,128,7.0,7.0,65,0.00,,,0.00,Wunderground v.1.12,2013-03-04 06:45:00,
2013-03-04 01:47:00,24.7,14.6,29.79,NE,45,4.0,11.0,65,0.00,,,0.00,Wunderground v.1.12,2013-03-04 06:47:00,
2013-03-04 01:50:00,24.7,14.6,29.80,ENE,73,3.0,5.0,65,0.00,,,0.00,Wunderground v.1.12,2013-03-04 06:50:00,
2013-03-04 01:52:00,24.7,14.6,29.79,ENE,68,4.0,10.0,65,0.00,,,0.00,Wunderground v.1.12,2013-03-04 06:52:00,
2013-03-04 01:55:00,24.7,14.6,29.79,NE,35,1.0,5.0,65,0.00,,,0.00,Wunderground v.1.12,2013-03-04 06:55:00,
2013-03-04 01:57:00,24.7,14.6,29.79,ESE,113,4.0,10.0,65,0.00,,,0.00,Wunderground v.1.12,2013-03-04 06:57:00,
2013-03-04 02:00:00,24.7,14.6,29.79,East,90,5.0,5.0,65,0.00,,,0.00,Wunderground v.1.12,2013-03-04 07:00:00,
2013-03-04 02:02:00,24.7,14.6,29.80,NE,45,4.0,8.0,65,0.00,,,0.00,Wunderground v.1.12,2013-03-04 07:02:00,
2013-03-04 02:05:00,24.7,14.6,29.79,SE,134,5.0,5.0,65,0.00,,,0.00,Wunderground v.1.12,2013-03-04 07:05:00,
2013-03-04 02:07:00,24.7,14.6,29.80,ESE,113,6.0,13.0,65,0.00,,,0.00,Wunderground v.1.12,2013-03-04 07:07:00,
2013-03-04 02:10:00,24.7,14.6,29.80,NNE,24,7.0,7.0,65,0.00,,,0.00,Wunderground v.1.12,2013-03-04 07:10:00,
2013-03-04 02:12:00,24.7,14.6,29.80,East,90,5.0,11.0,65,0.00,,,0.00,Wunderground v.1.12,2013-03-04 07:12:00,
2013-03-04 02:15:00,24.7,14.6,29.80,SE,138,5.0,9.0,65,0.00,,,0.00,Wunderground v.1.12,2013-03-04 07:15:00,
2013-03-04 02:17:00,24.7,14.6,29.79,East,90,5.0,11.0,65,0.00,,,0.00,Wunderground v.1.12,2013-03-04 07:17:00,
2013-03-04 02:21:00,24.7,14.6,29.80,East,99,6.0,10.0,65,0.00,,,0.00,Wunderground v.1.12,2013-03-04 07:21:00,
2013-03-04 02:22:00,24.5,14.4,29.79,East,90,5.0,13.0,65,0.00,,,0.00,Wunderground v.1.12,2013-03-04 07:22:00,
2013-03-04 02:26:00,24.7,14.6,29.79,ESE,105,5.0,5.0,65,0.00,,,0.00,Wunderground v.1.12,2013-03-04 07:26:00,
2013-03-04 02:27:00,24.5,14.4,29.79,ENE,68,4.0,11.0,65,0.00,,,0.00,Wunderground v.1.12,2013-03-04 07:27:00,
2013-03-04 02:31:00,24.5,14.4,29.79,East,88,3.0,8.0,65,0.00,,,0.00,Wunderground v.1.12,2013-03-04 07:31:00,
2013-03-04 02:32:00,24.5,14.8,29.79,East,90,3.0,7.0,66,0.00,,,0.00,Wunderground v.1.12,2013-03-04 07:32:00,
2013-03-04 02:36:00,24.5,14.8,29.79,NE,54,0.0,5.0,66,0.00,,,0.00,Wunderground v.1.12,2013-03-04 07:36:00,
2013-03-04 02:37:00,24.5,14.8,29.79,East,90,4.0,10.0,66,0.00,,,0.00,Wunderground v.1.12,2013-03-04 07:37:00,
2013-03-04 02:41:00,24.5,14.8,29.79,NE,40,2.0,9.0,66,0.00,,,0.00,Wunderground v.1.12,2013-03-04 07:41:00,
2013-03-04 02:42:00,24.5,14.8,29.79,ESE,113,4.0,11.0,66,0.00,,,0.00,Wunderground v.1.12,2013-03-04 07:42:00,
2013-03-04 02:46:00,24.5,14.8,29.79,ESE,109,6.0,6.0,66,0.00,,,0.00,Wunderground v.1.12,2013-03-04 07:46:00,
2013-03-04 02:47:00,24.5,14.8,29.78,East,90,4.0,11.0,66,0.00,,,0.00,Wunderground v.1.12,2013-03-04 07:47:00,
2013-03-04 02:51:00,24.5,14.8,29.79,ESE,105,5.0,7.0,66,0.00,,,0.00,Wunderground v.1.12,2013-03-04 07:51:00,
2013-03-04 02:52:00,24.5,14.8,29.78,ESE,113,4.0,9.0,66,0.00,,,0.00,Wunderground v.1.12,2013-03-04 07:52:00,
2013-03-04 02:56:00,24.5,14.8,29.79,ESE,116,8.0,9.0,66,0.00,,,0.00,Wunderground v.1.12,2013-03-04 07:56:00,
2013-03-04 02:57:00,24.5,14.8,29.78,East,90,4.0,9.0,66,0.00,,,0.00,Wunderground v.1.12,2013-03-04 07:57:00,
2013-03-04 03:01:00,24.5,14.8,29.79,East,101,4.0,9.0,66,0.00,,,0.00,Wunderground v.1.12,2013-03-04 08:01:00,
2013-03-04 03:02:00,24.5,14.8,29.79,East,90,5.0,12.0,66,0.00,,,0.00,Wunderground v.1.12,2013-03-04 08:02:00,
2013-03-04 03:06:00,24.5,14.8,29.79,SE,132,9.0,9.0,66,0.00,,,0.00,Wunderground v.1.12,2013-03-04 08:06:00,
2013-03-04 03:07:00,24.5,14.4,29.79,East,90,5.0,11.0,65,0.00,,,0.00,Wunderground v.1.12,2013-03-04 08:07:00,
2013-03-04 03:11:00,24.5,14.4,29.79,NE,53,5.0,10.0,65,0.00,,,0.00,Wunderground v.1.12,2013-03-04 08:11:00,
2013-03-04 03:12:00,24.5,14.8,29.79,ENE,68,4.0,7.0,66,0.00,,,0.00,Wunderground v.1.12,2013-03-04 08:12:00,
2013-03-04 03:16:00,24.5,14.8,29.79,East,90,6.0,9.0,66,0.00,,,0.00,Wunderground v.1.12,2013-03-04 08:16:00,
2013-03-04 03:17:00,24.7,14.9,29.78,ENE,68,3.0,8.0,66,0.00,,,0.00,Wunderground v.1.12,2013-03-04 08:17:00,
2013-03-04 03:21:00,24.5,14.8,29.79,ENE,65,2.0,6.0,66,0.00,,,0.00,Wunderground v.1.12,2013-03-04 08:21:00,
2013-03-04 03:22:00,24.5,14.4,29.78,East,90,3.0,6.0,65,0.00,,,0.00,Wunderground v.1.12,2013-03-04 08:22:00,
2013-03-04 03:27:00,24.7,14.9,29.79,ESE,109,3.0,4.0,66,0.00,,,0.00,Wunderground v.1.12,2013-03-04 08:27:00,
2013-03-04 03:32:00,24.5,14.8,29.79,East,86,1.0,6.0,66,0.00,,,0.00,Wunderground v.1.12,2013-03-04 08:32:00,
2013-03-04 03:37:00,24.7,14.9,29.79,ENE,64,1.0,3.0,66,0.00,,,0.00,Wunderground v.1.12,2013-03-04 08:37:00,
2013-03-04 03:42:00,24.7,14.9,29.79,East,101,5.0,9.0,66,0.00,,,0.00,Wunderground v.1.12,2013-03-04 08:42:00,
2013-03-04 03:47:00,24.7,14.9,29.79,East,98,3.0,5.0,66,0.00,,,0.00,Wunderground v.1.12,2013-03-04 08:47:00,
2013-03-04 03:52:00,24.7,14.9,29.79,NE,42,3.0,7.0,66,0.00,,,0.00,Wunderground v.1.12,2013-03-04 08:52:00,
2013-03-04 03:57:00,24.7,14.9,29.79,North,5,6.0,11.0,66,0.00,,,0.00,Wunderground v.1.12,2013-03-04 08:57:00,
2013-03-04 04:02:00,24.7,14.9,29.79,ENE,57,10.0,13.0,66,0.00,,,0.00,Wunderground v.1.12,2013-03-04 09:02:00,
2013-03-04 04:07:00,24.7,14.9,29.79,ESE,105,3.0,5.0,66,0.00,,,0.00,Wunderground v.1.12,2013-03-04 09:07:00,
2013-03-04 04:12:00,24.7,15.3,29.80,ESE,116,3.0,10.0,67,0.00,,,0.00,Wunderground v.1.12,2013-03-04 09:12:00,
2013-03-04 04:17:00,24.7,15.3,29.80,East,90,5.0,7.0,67,0.00,,,0.00,Wunderground v.1.12,2013-03-04 09:17:00,
2013-03-04 04:22:00,24.7,15.3,29.80,East,94,5.0,9.0,67,0.00,,,0.00,Wunderground v.1.12,2013-03-04 09:22:00,
2013-03-04 04:27:00,24.7,15.3,29.80,NNE,14,8.0,8.0,67,0.00,,,0.00,Wunderground v.1.12,2013-03-04 09:27:00,
2013-03-04 04:32:00,24.7,15.3,29.80,East,99,1.0,7.0,67,0.00,,,0.00,Wunderground v.1.12,2013-03-04 09:32:00,
2013-03-04 04:37:00,24.7,15.6,29.80,SE,126,1.0,4.0,68,0.00,,,0.00,Wunderground v.1.12,2013-03-04 09:37:00,
2013-03-04 04:42:00,24.8,15.7,29.80,ESE,113,5.0,14.0,68,0.00,,,0.00,Wunderground v.1.12,2013-03-04 09:42:00,
2013-03-04 04:43:00,24.7,15.6,29.80,NE,55,0.0,9.0,68,0.00,,,0.00,Wunderground v.1.12,2013-03-04 09:43:00,
2013-03-04 04:47:00,24.8,15.7,29.80,ENE,68,4.0,10.0,68,0.00,,,0.00,Wunderground v.1.12,2013-03-04 09:47:00,
2013-03-04 04:48:00,24.8,15.4,29.80,ESE,119,6.0,13.0,67,0.00,,,0.00,Wunderground v.1.12,2013-03-04 09:48:00,
2013-03-04 04:52:00,24.7,15.6,29.80,NE,45,3.0,6.0,68,0.00,,,0.00,Wunderground v.1.12,2013-03-04 09:52:00,
2013-03-04 04:53:00,24.8,15.4,29.80,North,350,4.0,9.0,67,0.00,,,0.00,Wunderground v.1.12,2013-03-04 09:53:00,
2013-03-04 04:57:00,24.7,15.6,29.80,East,90,3.0,10.0,68,0.00,,,0.00,Wunderground v.1.12,2013-03-04 09:57:00,
2013-03-04 04:58:00,24.8,15.7,29.80,ENE,74,2.0,6.0,68,0.00,,,0.00,Wunderground v.1.12,2013-03-04 09:58:00,
2013-03-04 05:02:00,24.7,15.6,29.81,NNE,23,2.0,5.0,68,0.00,,,0.00,Wunderground v.1.12,2013-03-04 10:02:00,
2013-03-04 05:03:00,24.7,15.6,29.80,ESE,115,3.0,6.0,68,0.00,,,0.00,Wunderground v.1.12,2013-03-04 10:03:00,
2013-03-04 05:07:00,24.7,15.6,29.81,ENE,68,3.0,10.0,68,0.00,,,0.00,Wunderground v.1.12,2013-03-04 10:07:00,
2013-03-04 05:09:00,24.7,15.6,29.80,NNE,19,0.0,3.0,68,0.00,,,0.00,Wunderground v.1.12,2013-03-04 10:09:00,
2013-03-04 05:12:00,24.7,15.6,29.81,SE,135,4.0,10.0,68,0.00,,,0.00,Wunderground v.1.12,2013-03-04 10:12:00,
2013-03-04 05:14:00,24.7,15.6,29.81,ENE,74,1.0,10.0,68,0.00,,,0.00,Wunderground v.1.12,2013-03-04 10:14:00,
2013-03-04 05:17:00,24.7,15.6,29.82,ESE,113,5.0,10.0,68,0.00,,,0.00,Wunderground v.1.12,2013-03-04 10:17:00,
2013-03-04 05:19:00,24.7,15.6,29.81,SE,142,1.0,7.0,68,0.00,,,0.00,Wunderground v.1.12,2013-03-04 10:19:00,
2013-03-04 05:22:00,24.8,15.7,29.82,East,90,4.0,11.0,68,0.00,,,0.00,Wunderground v.1.12,2013-03-04 10:22:00,
2013-03-04 05:24:00,24.7,15.6,29.81,ESE,104,7.0,10.0,68,0.00,,,0.00,Wunderground v.1.12,2013-03-04 10:24:00,
2013-03-04 05:27:00,24.8,15.7,29.82,ESE,113,4.0,10.0,68,0.00,,,0.00,Wunderground v.1.12,2013-03-04 10:27:00,
2013-03-04 05:29:00,24.8,15.7,29.82,East,96,6.0,9.0,68,0.00,,,0.00,Wunderground v.1.12,2013-03-04 10:29:00,
2013-03-04 05:32:00,25.0,15.9,29.82,ESE,113,5.0,11.0,68,0.00,,,0.00,Wunderground v.1.12,2013-03-04 10:32:00,
2013-03-04 05:34:00,24.8,15.7,29.82,ESE,119,4.0,10.0,68,0.00,,,0.00,Wunderground v.1.12,2013-03-04 10:34:00,
2013-03-04 05:37:00,25.0,15.9,29.82,ENE,68,4.0,10.0,68,0.00,,,0.00,Wunderground v.1.12,2013-03-04 10:37:00,
2013-03-04 05:39:00,25.0,15.9,29.82,ESE,104,5.0,11.0,68,0.00,,,0.00,Wunderground v.1.12,2013-03-04 10:39:00,
2013-03-04 05:42:00,25.0,16.3,29.82,ESE,113,4.0,9.0,69,0.00,,,0.00,Wunderground v.1.12,2013-03-04 10:42:00,
2013-03-04 05:44:00,25.0,15.9,29.82,East,92,8.0,9.0,68,0.00,,,0.00,Wunderground v.1.12,2013-03-04 10:44:00,
2013-03-04 05:47:00,25.0,16.3,29.82,ESE,113,4.0,11.0,69,0.00,,,0.00,Wunderground v.1.12,2013-03-04 10:47:00,
2013-03-04 05:49:00,25.0,16.3,29.82,ESE,106,2.0,6.0,69,0.00,,,0.00,Wunderground v.1.12,2013-03-04 10:49:00,
2013-03-04 05:52:00,25.0,16.3,29.82,ENE,68,4.0,12.0,69,0.00,,,0.00,Wunderground v.1.12,2013-03-04 10:52:00,
2013-03-04 05:55:00,25.0,16.3,29.82,East,88,3.0,9.0,69,0.00,,,0.00,Wunderground v.1.12,2013-03-04 10:55:00,
2013-03-04 05:57:00,25.0,16.3,29.82,ESE,113,4.0,12.0,69,0.00,,,0.00,Wunderground v.1.12,2013-03-04 10:57:00,
2013-03-04 06:00:00,25.0,16.3,29.82,ENE,61,3.0,12.0,69,0.00,,,0.00,Wunderground v.1.12,2013-03-04 11:00:00,
2013-03-04 06:02:00,24.8,16.1,29.82,ESE,113,3.0,6.0,69,0.00,,,0.00,Wunderground v.1.12,2013-03-04 11:02:00,
2013-03-04 06:05:00,25.0,16.3,29.82,ESE,117,9.0,9.0,69,0.00,,,0.00,Wunderground v.1.12,2013-03-04 11:05:00,
2013-03-04 06:07:00,25.0,16.3,29.82,East,90,5.0,11.0,69,0.00,,,0.00,Wunderground v.1.12,2013-03-04 11:07:00,
2013-03-04 06:10:00,24.8,16.1,29.82,NNE,33,0.0,4.0,69,0.00,,,0.00,Wunderground v.1.12,2013-03-04 11:10:00,
2013-03-04 06:12:00,25.0,16.3,29.82,East,90,6.0,12.0,69,0.00,,,0.00,Wunderground v.1.12,2013-03-04 11:12:00,
2013-03-04 06:15:00,25.0,16.3,29.82,East,98,11.0,11.0,69,0.00,,,0.00,Wunderground v.1.12,2013-03-04 11:15:00,
2013-03-04 06:17:00,24.8,16.1,29.83,East,90,5.0,9.0,69,0.00,,,0.00,Wunderground v.1.12,2013-03-04 11:17:00,
2013-03-04 06:20:00,25.0,16.3,29.82,East,94,10.0,10.0,69,0.00,,,0.00,Wunderground v.1.12,2013-03-04 11:20:00,
2013-03-04 06:22:00,24.8,16.1,29.83,East,90,5.0,11.0,69,0.00,,,0.00,Wunderground v.1.12,2013-03-04 11:22:00,
2013-03-04 06:25:00,24.8,16.1,29.83,East,100,0.0,6.0,69,0.00,,,0.00,Wunderground v.1.12,2013-03-04 11:25:00,
2013-03-04 06:27:00,24.8,16.1,29.83,East,90,6.0,11.0,69,0.00,,,0.00,Wunderground v.1.12,2013-03-04 11:27:00,
2013-03-04 06:30:00,25.0,16.3,29.83,East,98,3.0,5.0,69,0.00,,,0.00,Wunderground v.1.12,2013-03-04 11:30:00,
2013-03-04 06:32:00,25.0,16.3,29.83,East,90,6.0,14.0,69,0.00,,,0.00,Wunderground v.1.12,2013-03-04 11:32:00,
2013-03-04 06:35:00,24.8,16.1,29.83,ENE,64,8.0,8.0,69,0.00,,,0.00,Wunderground v.1.12,2013-03-04 11:35:00,
2013-03-04 06:37:00,25.0,16.3,29.83,ESE,113,7.0,14.0,69,0.00,,,0.00,Wunderground v.1.12,2013-03-04 11:37:00,
2013-03-04 06:40:00,24.8,16.1,29.83,ENE,67,4.0,6.0,69,0.00,,,0.00,Wunderground v.1.12,2013-03-04 11:40:00,
2013-03-04 06:42:00,25.0,15.9,29.83,ESE,113,8.0,13.0,68,0.00,,,0.00,Wunderground v.1.12,2013-03-04 11:42:00,
2013-03-04 06:45:00,25.0,16.3,29.83,East,80,10.0,10.0,69,0.00,,,0.00,Wunderground v.1.12,2013-03-04 11:45:00,
2013-03-04 06:47:00,25.1,16.0,29.84,East,90,5.0,12.0,68,0.00,,,0.00,Wunderground v.1.12,2013-03-04 11:47:00,
2013-03-04 06:50:00,25.0,15.9,29.83,ESE,102,7.0,9.0,68,0.00,,,0.00,Wunderground v.1.12,2013-03-04 11:50:00,
2013-03-04 06:52:00,25.1,16.0,29.84,East,90,5.0,10.0,68,0.00,,,0.00,Wunderground v.1.12,2013-03-04 11:52:00,
2013-03-04 06:55:00,25.1,16.0,29.84,ENE,76,0.0,7.0,68,0.00,,,0.00,Wunderground v.1.12,2013-03-04 11:55:00,
2013-03-04 06:57:00,25.1,16.0,29.84,East,90,6.0,15.0,68,0.00,,,0.00,Wunderground v.1.12,2013-03-04 11:57:00,
2013-03-04 07:00:00,25.1,16.0,29.84,ENE,73,5.0,5.0,68,0.00,,,0.00,Wunderground v.1.12,2013-03-04 12:00:00,
2013-03-04 07:02:00,25.1,15.7,29.84,East,90,6.0,12.0,67,0.00,,,0.00,Wunderground v.1.12,2013-03-04 12:02:00,
2013-03-04 07:05:00,25.1,16.0,29.84,ESE,113,5.0,5.0,68,0.00,,,0.00,Wunderground v.1.12,2013-03-04 12:05:00,
2013-03-04 07:07:00,25.1,15.7,29.84,ESE,113,6.0,12.0,67,0.00,,,0.00,Wunderground v.1.12,2013-03-04 12:07:00,
2013-03-04 07:10:00,25.1,15.7,29.84,ESE,122,7.0,9.0,67,0.00,,,0.00,Wunderground v.1.12,2013-03-04 12:10:00,
2013-03-04 07:12:00,25.3,15.9,29.84,ENE,68,5.0,10.0,67,0.00,,,0.00,Wunderground v.1.12,2013-03-04 12:12:00,
2013-03-04 07:15:00,25.1,15.7,29.84,ESE,112,9.0,10.0,67,0.00,,,0.00,Wunderground v.1.12,2013-03-04 12:15:00,
2013-03-04 07:17:00,25.3,15.5,29.84,East,90,4.0,7.0,66,0.00,,,0.00,Wunderground v.1.12,2013-03-04 12:17:00,
2013-03-04 07:20:00,25.3,15.9,29.84,ENE,61,3.0,6.0,67,0.00,,,0.00,Wunderground v.1.12,2013-03-04 12:20:00,
2013-03-04 07:22:00,25.3,15.5,29.84,ENE,68,5.0,11.0,66,0.00,,,0.00,Wunderground v.1.12,2013-03-04 12:22:00,
2013-03-04 07:25:00,25.3,15.5,29.84,ENE,65,5.0,6.0,66,0.00,,,0.00,Wunderground v.1.12,2013-03-04 12:25:00,
2013-03-04 07:27:00,25.4,15.6,29.84,East,90,4.0,10.0,66,0.00,,,0.00,Wunderground v.1.12,2013-03-04 12:27:00,
2013-03-04 07:30:00,25.3,15.5,29.84,East,81,10.0,10.0,66,0.00,,,0.00,Wunderground v.1.12,2013-03-04 12:30:00,
2013-03-04 07:32:00,25.4,15.3,29.84,NE,45,4.0,11.0,65,0.00,,,0.00,Wunderground v.1.12,2013-03-04 12:32:00,
2013-03-04 07:35:00,25.4,15.6,29.84,ENE,72,3.0,5.0,66,0.00,,,0.00,Wunderground v.1.12,2013-03-04 12:35:00,
2013-03-04 07:37:00,25.6,15.5,29.84,ESE,113,2.0,6.0,65,0.00,,,0.00,Wunderground v.1.12,2013-03-04 12:37:00,
2013-03-04 07:41:00,25.4,15.3,29.84,ENE,76,1.0,4.0,65,0.00,,,0.00,Wunderground v.1.12,2013-03-04 12:41:00,
2013-03-04 07:42:00,25.6,15.5,29.84,East,90,3.0,6.0,65,0.00,,,0.00,Wunderground v.1.12,2013-03-04 12:42:00,
2013-03-04 07:46:00,25.6,15.5,29.84,East,94,3.0,3.0,65,0.00,,,0.00,Wunderground v.1.12,2013-03-04 12:46:00,
2013-03-04 07:47:00,25.6,15.5,29.85,East,90,5.0,9.0,65,0.00,,,0.00,Wunderground v.1.12,2013-03-04 12:47:00,
2013-03-04 07:51:00,25.6,15.5,29.84,ESE,103,3.0,6.0,65,0.00,,,0.00,Wunderground v.1.12,2013-03-04 12:51:00,
2013-03-04 07:52:00,25.4,14.9,29.85,East,90,6.0,13.0,64,0.00,,,0.00,Wunderground v.1.12,2013-03-04 12:52:00,
2013-03-04 07:56:00,25.6,15.5,29.85,SE,140,7.0,9.0,65,0.00,,,0.00,Wunderground v.1.12,2013-03-04 12:56:00,
2013-03-04 07:57:00,25.6,15.1,29.85,NE,45,4.0,10.0,64,0.00,,,0.00,Wunderground v.1.12,2013-03-04 12:57:00,
2013-03-04 08:01:00,25.4,14.9,29.85,ENE,65,4.0,10.0,64,0.00,,,0.00,Wunderground v.1.12,2013-03-04 13:01:00,
2013-03-04 08:02:00,25.7,15.2,29.85,ENE,68,4.0,13.0,64,0.00,,,0.00,Wunderground v.1.12,2013-03-04 13:02:00,
2013-03-04 08:06:00,25.6,15.1,29.85,NNE,23,4.0,7.0,64,0.00,,,0.00,Wunderground v.1.12,2013-03-04 13:06:00,
2013-03-04 08:07:00,25.7,14.8,29.85,ESE,113,5.0,10.0,63,0.00,,,0.00,Wunderground v.1.12,2013-03-04 13:07:00,
2013-03-04 08:11:00,25.7,15.2,29.85,East,89,12.0,12.0,64,0.00,,,0.00,Wunderground v.1.12,2013-03-04 13:11:00,
2013-03-04 08:12:00,25.8,14.9,29.85,ENE,68,5.0,12.0,63,0.00,,,0.00,Wunderground v.1.12,2013-03-04 13:12:00,
2013-03-04 08:16:00,25.7,14.8,29.85,ESE,118,6.0,7.0,63,0.00,,,0.00,Wunderground v.1.12,2013-03-04 13:16:00,
2013-03-04 08:17:00,25.8,14.6,29.85,ENE,68,5.0,11.0,62,0.00,,,0.00,Wunderground v.1.12,2013-03-04 13:17:00,
2013-03-04 08:21:00,25.8,14.6,29.85,SE,136,5.0,11.0,62,0.00,,,0.00,Wunderground v.1.12,2013-03-04 13:21:00,
2013-03-04 08:22:00,26.0,15.1,29.85,East,90,3.0,9.0,63,0.00,,,0.00,Wunderground v.1.12,2013-03-04 13:22:00,
2013-03-04 08:26:00,25.8,14.6,29.85,SE,129,3.0,9.0,62,0.00,,,0.00,Wunderground v.1.12,2013-03-04 13:26:00,
2013-03-04 08:27:00,26.1,14.8,29.85,ENE,68,4.0,8.0,62,0.00,,,0.00,Wunderground v.1.12,2013-03-04 13:27:00,
2013-03-04 08:31:00,26.0,14.8,29.85,ENE,72,5.0,7.0,62,0.00,,,0.00,Wunderground v.1.12,2013-03-04 13:31:00,
2013-03-04 08:32:00,26.4,15.5,29.85,ENE,68,5.0,11.0,63,0.00,,,0.00,Wunderground v.1.12,2013-03-04 13:32:00,
2013-03-04 08:36:00,26.3,15.0,29.85,ESE,113,0.0,6.0,62,0.00,,,0.00,Wunderground v.1.12,2013-03-04 13:36:00,
2013-03-04 08:37:00,26.6,15.7,29.85,ESE,113,4.0,9.0,63,0.00,,,0.00,Wunderground v.1.12,2013-03-04 13:37:00,
2013-03-04 08:41:00,26.4,15.5,29.85,ENE,61,3.0,9.0,63,0.00,,,0.00,Wunderground v.1.12,2013-03-04 13:41:00,
2013-03-04 08:42:00,26.7,15.4,29.85,East,90,5.0,10.0,62,0.00,,,0.00,Wunderground v.1.12,2013-03-04 13:42:00,
2013-03-04 08:46:00,26.6,15.3,29.85,SE,131,4.0,6.0,62,0.00,,,0.00,Wunderground v.1.12,2013-03-04 13:46:00,
2013-03-04 08:47:00,27.0,15.7,29.84,ESE,113,3.0,10.0,62,0.00,,,0.00,Wunderground v.1.12,2013-03-04 13:47:00,
2013-03-04 08:52:00,26.7,15.4,29.85,ESE,123,4.0,10.0,62,0.00,,,0.00,Wunderground v.1.12,2013-03-04 13:52:00,
2013-03-04 08:57:00,27.2,15.9,29.84,ESE,113,2.0,5.0,62,0.00,,,0.00,Wunderground v.1.12,2013-03-04 13:57:00,
2013-03-04 09:02:00,27.0,15.3,29.84,East,88,6.0,9.0,61,0.00,,,0.00,Wunderground v.1.12,2013-03-04 14:02:00,
2013-03-04 09:07:00,26.9,15.6,29.84,North,349,6.0,6.0,62,0.00,,,0.00,Wunderground v.1.12,2013-03-04 14:07:00,
2013-03-04 09:12:00,26.6,14.9,29.84,NE,40,3.0,7.0,61,0.00,,,0.00,Wunderground v.1.12,2013-03-04 14:12:00,
2013-03-04 09:17:00,26.7,15.0,29.84,NNW,340,5.0,12.0,61,0.00,,,0.00,Wunderground v.1.12,2013-03-04 14:17:00,
2013-03-04 09:22:00,27.0,14.9,29.84,NNE,19,4.0,7.0,60,0.00,,,0.00,Wunderground v.1.12,2013-03-04 14:22:00,
2013-03-04 09:27:00,27.5,15.0,29.84,ESE,103,9.0,14.0,59,0.00,,,0.00,Wunderground v.1.12,2013-03-04 14:27:00,
2013-03-04 09:32:00,27.5,14.6,29.84,East,83,6.0,10.0,58,0.00,,,0.00,Wunderground v.1.12,2013-03-04 14:32:00,
2013-03-04 09:37:00,28.1,15.2,29.84,SE,128,9.0,11.0,58,0.00,,,0.00,Wunderground v.1.12,2013-03-04 14:37:00,
2013-03-04 09:42:00,28.2,15.3,29.85,ESE,117,6.0,9.0,58,0.00,,,0.00,Wunderground v.1.12,2013-03-04 14:42:00,
2013-03-04 09:47:00,28.5,15.2,29.85,ENE,70,7.0,12.0,57,0.00,,,0.00,Wunderground v.1.12,2013-03-04 14:47:00,
2013-03-04 09:52:00,28.5,15.2,29.85,SSE,153,10.0,14.0,57,0.00,,,0.00,Wunderground v.1.12,2013-03-04 14:52:00,
2013-03-04 09:57:00,29.0,15.2,29.84,ENE,61,4.0,7.0,56,0.00,,,0.00,Wunderground v.1.12,2013-03-04 14:57:00,
2013-03-04 10:02:00,29.1,15.3,29.84,NE,44,7.0,11.0,56,0.00,,,0.00,Wunderground v.1.12,2013-03-04 15:02:00,
2013-03-04 10:07:00,29.3,15.5,29.84,ESE,103,6.0,9.0,56,0.00,,,0.00,Wunderground v.1.12,2013-03-04 15:07:00,
2013-03-04 10:12:00,29.7,15.5,29.84,NE,55,2.0,11.0,55,0.00,,,0.00,Wunderground v.1.12,2013-03-04 15:12:00,
2013-03-04 10:17:00,30.1,15.9,29.84,North,350,9.0,9.0,55,0.00,,,0.00,Wunderground v.1.12,2013-03-04 15:17:00,
2013-03-04 10:22:00,30.7,16.0,29.84,ENE,63,3.0,6.0,54,0.00,,,0.00,Wunderground v.1.12,2013-03-04 15:22:00,
2013-03-04 10:27:00,30.9,15.8,29.84,ENE,71,3.0,12.0,53,0.00,,,0.00,Wunderground v.1.12,2013-03-04 15:27:00,
2013-03-04 10:32:00,30.7,16.0,29.84,East,97,3.0,7.0,54,0.00,,,0.00,Wunderground v.1.12,2013-03-04 15:32:00,
2013-03-04 10:37:00,30.7,16.0,29.84,SE,134,5.0,11.0,54,0.00,,,0.00,Wunderground v.1.12,2013-03-04 15:37:00,
2013-03-04 10:42:00,31.0,16.3,29.84,East,97,5.0,11.0,54,0.00,,,0.00,Wunderground v.1.12,2013-03-04 15:42:00,
2013-03-04 10:47:00,31.6,16.0,29.84,NE,44,2.0,12.0,52,0.00,,,0.00,Wunderground v.1.12,2013-03-04 15:47:00,
2013-03-04 10:52:00,31.8,16.2,29.85,NE,45,6.0,14.0,52,0.00,,,0.00,Wunderground v.1.12,2013-03-04 15:52:00,
2013-03-04 10:53:00,31.5,15.9,29.84,NNE,31,10.0,13.0,52,0.00,,,0.00,Wunderground v.1.12,2013-03-04 15:53:00,
2013-03-04 10:57:00,31.5,15.4,29.85,NE,45,7.0,13.0,51,0.00,,,0.00,Wunderground v.1.12,2013-03-04 15:57:00,
2013-03-04 10:58:00,31.3,16.1,29.85,NE,34,5.0,11.0,53,0.00,,,0.00,Wunderground v.1.12,2013-03-04 15:58:00,
2013-03-04 11:02:00,31.0,15.0,29.84,ENE,68,7.0,14.0,51,0.00,,,0.00,Wunderground v.1.12,2013-03-04 16:02:00,
2013-03-04 11:03:00,31.8,16.2,29.85,NNE,30,6.0,13.0,52,0.00,,,0.00,Wunderground v.1.12,2013-03-04 16:03:00,
2013-03-04 11:07:00,31.5,16.3,29.84,NE,45,5.0,12.0,53,0.00,,,0.00,Wunderground v.1.12,2013-03-04 16:07:00,
2013-03-04 11:08:00,31.3,15.7,29.85,NE,48,14.0,14.0,52,0.00,,,0.00,Wunderground v.1.12,2013-03-04 16:08:00,
2013-03-04 11:12:00,32.2,16.5,29.84,NNE,23,6.0,13.0,52,0.00,,,0.00,Wunderground v.1.12,2013-03-04 16:12:00,
2013-03-04 11:13:00,31.2,15.6,29.84,NNE,29,3.0,12.0,52,0.00,,,0.00,Wunderground v.1.12,2013-03-04 16:13:00,
2013-03-04 11:17:00,32.4,15.8,29.83,NE,45,7.0,16.0,50,0.00,,,0.00,Wunderground v.1.12,2013-03-04 16:17:00,
2013-03-04 11:18:00,31.8,16.2,29.84,NNE,13,3.0,13.0,52,0.00,,,0.00,Wunderground v.1.12,2013-03-04 16:18:00,
2013-03-04 11:22:00,32.2,16.1,29.83,East,90,4.0,10.0,51,0.00,,,0.00,Wunderground v.1.12,2013-03-04 16:22:00,
2013-03-04 11:24:00,32.7,16.5,29.84,ENE,63,5.0,11.0,51,0.00,,,0.00,Wunderground v.1.12,2013-03-04 16:24:00,
2013-03-04 11:27:00,32.5,15.9,29.83,East,90,4.0,11.0,50,0.00,,,0.00,Wunderground v.1.12,2013-03-04 16:27:00,
2013-03-04 11:29:00,32.2,16.1,29.84,SE,130,1.0,9.0,51,0.00,,,0.00,Wunderground v.1.12,2013-03-04 16:29:00,
2013-03-04 11:32:00,32.8,16.2,29.83,ESE,113,7.0,12.0,50,0.00,,,0.00,Wunderground v.1.12,2013-03-04 16:32:00,
2013-03-04 11:34:00,32.5,16.4,29.84,ENE,76,5.0,10.0,51,0.00,,,0.00,Wunderground v.1.12,2013-03-04 16:34:00,
2013-03-04 11:37:00,32.2,16.1,29.83,NNE,23,9.0,15.0,51,0.00,,,0.00,Wunderground v.1.12,2013-03-04 16:37:00,
2013-03-04 11:40:00,32.8,16.6,29.84,SE,144,12.0,12.0,51,0.00,,,0.00,Wunderground v.1.12,2013-03-04 16:40:00,
2013-03-04 11:42:00,32.2,16.1,29.83,ENE,68,6.0,14.0,51,0.00,,,0.00,Wunderground v.1.12,2013-03-04 16:42:00,
2013-03-04 11:45:00,32.4,15.8,29.84,NNE,32,10.0,14.0,50,0.00,,,0.00,Wunderground v.1.12,2013-03-04 16:45:00,
2013-03-04 11:47:00,32.5,16.4,29.83,NE,45,6.0,15.0,51,0.00,,,0.00,Wunderground v.1.12,2013-03-04 16:47:00,
2013-03-04 11:50:00,32.2,16.1,29.84,ENE,69,6.0,15.0,51,0.00,,,0.00,Wunderground v.1.12,2013-03-04 16:50:00,
2013-03-04 11:52:00,32.8,16.6,29.83,NNE,23,9.0,18.0,51,0.00,,,0.00,Wunderground v.1.12,2013-03-04 16:52:00,
2013-03-04 11:55:00,32.5,16.4,29.83,ESE,104,11.0,12.0,51,0.00,,,0.00,Wunderground v.1.12,2013-03-04 16:55:00,
2013-03-04 11:57:00,33.5,16.4,29.83,NE,45,6.0,12.0,49,0.00,,,0.00,Wunderground v.1.12,2013-03-04 16:57:00,
2013-03-04 12:00:00,32.7,16.5,29.83,NNE,19,10.0,18.0,51,0.00,,,0.00,Wunderground v.1.12,2013-03-04 17:00:00,
2013-03-04 12:02:00,33.8,17.1,29.83,ENE,68,5.0,14.0,50,0.00,,,0.00,Wunderground v.1.12,2013-03-04 17:02:00,
2013-03-04 12:05:00,33.4,16.7,29.83,East,82,8.0,9.0,50,0.00,,,0.00,Wunderground v.1.12,2013-03-04 17:05:00,
2013-03-04 12:07:00,34.1,16.4,29.83,ESE,113,5.0,12.0,48,0.00,,,0.00,Wunderground v.1.12,2013-03-04 17:07:00,
2013-03-04 12:10:00,33.7,17.0,29.83,ENE,61,6.0,13.0,50,0.00,,,0.00,Wunderground v.1.12,2013-03-04 17:10:00,
2013-03-04 12:12:00,33.7,16.5,29.83,SE,135,8.0,14.0,49,0.00,,,0.00,Wunderground v.1.12,2013-03-04 17:12:00,
2013-03-04 12:15:00,34.3,17.1,29.83,SE,130,6.0,11.0,49,0.00,,,0.00,Wunderground v.1.12,2013-03-04 17:15:00,
2013-03-04 12:17:00,33.8,16.6,29.83,ENE,68,6.0,13.0,49,0.00,,,0.00,Wunderground v.1.12,2013-03-04 17:17:00,
2013-03-04 12:20:00,33.8,16.6,29.83,SSE,150,9.0,13.0,49,0.00,,,0.00,Wunderground v.1.12,2013-03-04 17:20:00,
2013-03-04 12:22:00,34.3,17.1,29.83,ESE,113,7.0,15.0,49,0.00,,,0.00,Wunderground v.1.12,2013-03-04 17:22:00,
2013-03-04 12:25:00,33.8,17.1,29.83,East,86,4.0,12.0,50,0.00,,,0.00,Wunderground v.1.12,2013-03-04 17:25:00,
2013-03-04 12:27:00,34.1,17.4,29.83,East,90,7.0,13.0,50,0.00,,,0.00,Wunderground v.1.12,2013-03-04 17:27:00,
2013-03-04 12:30:00,34.4,16.7,29.83,ESE,118,7.0,15.0,48,0.00,,,0.00,Wunderground v.1.12,2013-03-04 17:30:00,
2013-03-04 12:32:00,34.0,16.8,29.83,East,90,6.0,11.0,49,0.00,,,0.00,Wunderground v.1.12,2013-03-04 17:32:00,
2013-03-04 12:35:00,34.1,16.9,29.83,NE,49,5.0,13.0,49,0.00,,,0.00,Wunderground v.1.12,2013-03-04 17:35:00,
2013-03-04 12:37:00,33.7,17.0,29.83,NE,45,6.0,16.0,50,0.00,,,0.00,Wunderground v.1.12,2013-03-04 17:37:00,
2013-03-04 12:40:00,34.0,17.3,29.83,ESE,113,9.0,10.0,50,0.00,,,0.00,Wunderground v.1.12,2013-03-04 17:40:00,
2013-03-04 12:42:00,34.4,17.7,29.83,East,90,5.0,12.0,50,0.00,,,0.00,Wunderground v.1.12,2013-03-04 17:42:00,
2013-03-04 12:45:00,33.7,17.0,29.83,ENE,76,11.0,14.0,50,0.00,,,0.00,Wunderground v.1.12,2013-03-04 17:45:00,
2013-03-04 12:47:00,34.4,17.7,29.82,East,90,7.0,13.0,50,0.00,,,0.00,Wunderground v.1.12,2013-03-04 17:47:00,
2013-03-04 12:50:00,34.3,17.6,29.83,NNE,31,3.0,6.0,50,0.00,,,0.00,Wunderground v.1.12,2013-03-04 17:50:00,
2013-03-04 12:52:00,34.4,17.2,29.82,NE,45,7.0,16.0,49,0.00,,,0.00,Wunderground v.1.12,2013-03-04 17:52:00,
2013-03-04 12:55:00,34.4,17.2,29.82,East,82,2.0,6.0,49,0.00,,,0.00,Wunderground v.1.12,2013-03-04 17:55:00,
2013-03-04 12:57:00,34.4,17.2,29.82,NE,45,8.0,20.0,49,0.00,,,0.00,Wunderground v.1.12,2013-03-04 17:57:00,
2013-03-04 13:00:00,34.4,17.7,29.82,ESE,106,7.0,7.0,50,0.00,,,0.00,Wunderground v.1.12,2013-03-04 18:00:00,
2013-03-04 13:02:00,34.7,17.9,29.81,NE,45,7.0,13.0,50,0.00,,,0.00,Wunderground v.1.12,2013-03-04 18:02:00,
2013-03-04 13:05:00,34.6,17.4,29.82,ENE,62,13.0,13.0,49,0.00,,,0.00,Wunderground v.1.12,2013-03-04 18:05:00,
2013-03-04 13:07:00,35.2,18.4,29.81,NE,45,6.0,13.0,50,0.00,,,0.00,Wunderground v.1.12,2013-03-04 18:07:00,
2013-03-04 13:10:00,34.6,17.4,29.81,NE,38,6.0,7.0,49,0.00,,,0.00,Wunderground v.1.12,2013-03-04 18:10:00,
2013-03-04 13:12:00,35.0,17.7,29.81,NE,45,7.0,15.0,49,0.00,,,0.00,Wunderground v.1.12,2013-03-04 18:12:00,
2013-03-04 13:15:00,35.2,17.9,29.81,NE,38,3.0,7.0,49,0.00,,,0.00,Wunderground v.1.12,2013-03-04 18:15:00,
2013-03-04 13:17:00,35.2,17.9,29.81,ENE,68,7.0,16.0,49,0.00,,,0.00,Wunderground v.1.12,2013-03-04 18:17:00,
2013-03-04 13:20:00,34.9,17.7,29.81,East,101,5.0,9.0,49,0.00,,,0.00,Wunderground v.1.12,2013-03-04 18:20:00,
2013-03-04 13:22:00,35.0,17.7,29.81,ENE,68,6.0,13.0,49,0.00,,,0.00,Wunderground v.1.12,2013-03-04 18:22:00,
2013-03-04 13:25:00,35.2,17.9,29.81,NE,49,5.0,7.0,49,0.00,,,0.00,Wunderground v.1.12,2013-03-04 18:25:00,
2013-03-04 13:27:00,35.5,17.7,29.81,SE,135,6.0,11.0,48,0.00,,,0.00,Wunderground v.1.12,2013-03-04 18:27:00,
2013-03-04 13:29:00,35.2,17.4,29.81,East,92,5.0,12.0,48,0.00,,,0.00,Wunderground v.1.12,2013-03-04 18:29:00,
2013-03-04 13:30:00,35.2,17.4,29.81,ENE,71,10.0,12.0,48,0.00,,,0.00,Wunderground v.1.12,2013-03-04 18:30:00,
2013-03-04 13:32:00,36.0,17.7,29.81,ENE,68,6.0,12.0,47,0.00,,,0.00,Wunderground v.1.12,2013-03-04 18:32:00,
2013-03-04 13:36:00,35.5,17.7,29.81,ENE,61,5.0,6.0,48,0.00,,,0.00,Wunderground v.1.12,2013-03-04 18:36:00,
2013-03-04 13:37:00,35.5,17.7,29.81,ESE,113,6.0,15.0,48,0.00,,,0.00,Wunderground v.1.12,2013-03-04 18:37:00,
2013-03-04 13:41:00,36.0,17.7,29.81,ENE,62,5.0,12.0,47,0.00,,,0.00,Wunderground v.1.12,2013-03-04 18:41:00,
2013-03-04 13:42:00,35.5,17.2,29.81,SE,135,7.0,14.0,47,0.00,,,0.00,Wunderground v.1.12,2013-03-04 18:42:00,
2013-03-04 13:46:00,35.5,17.7,29.81,NNE,22,2.0,6.0,48,0.00,,,0.00,Wunderground v.1.12,2013-03-04 18:46:00,
2013-03-04 13:47:00,35.2,17.4,29.81,ESE,113,7.0,14.0,48,0.00,,,0.00,Wunderground v.1.12,2013-03-04 18:47:00,
2013-03-04 13:51:00,35.5,17.2,29.81,SE,128,9.0,9.0,47,0.00,,,0.00,Wunderground v.1.12,2013-03-04 18:51:00,
2013-03-04 13:52:00,35.5,17.2,29.81,SE,135,5.0,12.0,47,0.00,,,0.00,Wunderground v.1.12,2013-03-04 18:52:00,
2013-03-04 13:56:00,35.2,17.4,29.81,East,80,7.0,7.0,48,0.00,,,0.00,Wunderground v.1.12,2013-03-04 18:56:00,
2013-03-04 13:57:00,36.5,17.7,29.81,SE,135,3.0,11.0,46,0.00,,,0.00,Wunderground v.1.12,2013-03-04 18:57:00,
2013-03-04 14:01:00,35.5,17.2,29.81,SE,140,2.0,7.0,47,0.00,,,0.00,Wunderground v.1.12,2013-03-04 19:01:00,
2013-03-04 14:02:00,36.5,17.7,29.81,ENE,68,5.0,16.0,46,0.00,,,0.00,Wunderground v.1.12,2013-03-04 19:02:00,
2013-03-04 14:06:00,36.5,17.7,29.81,SE,139,11.0,11.0,46,0.00,,,0.00,Wunderground v.1.12,2013-03-04 19:06:00,
2013-03-04 14:07:00,36.2,17.4,29.81,East,90,6.0,18.0,46,0.00,,,0.00,Wunderground v.1.12,2013-03-04 19:07:00,
2013-03-04 14:11:00,36.5,17.7,29.81,ENE,78,2.0,14.0,46,0.00,,,0.00,Wunderground v.1.12,2013-03-04 19:11:00,
2013-03-04 14:12:00,36.9,18.0,29.81,SE,135,5.0,12.0,46,0.00,,,0.00,Wunderground v.1.12,2013-03-04 19:12:00,
2013-03-04 14:16:00,36.3,17.5,29.81,ESE,102,9.0,9.0,46,0.00,,,0.00,Wunderground v.1.12,2013-03-04 19:16:00,
2013-03-04 14:17:00,37.6,18.2,29.80,ESE,113,4.0,11.0,45,0.00,,,0.00,Wunderground v.1.12,2013-03-04 19:17:00,
2013-03-04 14:21:00,37.0,18.1,29.81,ESE,106,4.0,6.0,46,0.00,,,0.00,Wunderground v.1.12,2013-03-04 19:21:00,
2013-03-04 14:22:00,37.3,17.4,29.80,NE,45,4.0,11.0,44,0.00,,,0.00,Wunderground v.1.12,2013-03-04 19:22:00,
2013-03-04 14:26:00,37.6,18.2,29.80,NE,46,8.0,11.0,45,0.00,,,0.00,Wunderground v.1.12,2013-03-04 19:26:00,
2013-03-04 14:27:00,37.6,17.6,29.80,East,90,4.0,11.0,44,0.00,,,0.00,Wunderground v.1.12,2013-03-04 19:27:00,
2013-03-04 14:31:00,37.3,17.9,29.80,NE,55,5.0,10.0,45,0.00,,,0.00,Wunderground v.1.12,2013-03-04 19:31:00,
2013-03-04 14:32:00,37.5,17.0,29.80,ENE,68,5.0,10.0,43,0.00,,,0.00,Wunderground v.1.12,2013-03-04 19:32:00,
2013-03-04 14:36:00,37.6,17.6,29.80,NNE,32,3.0,10.0,44,0.00,,,0.00,Wunderground v.1.12,2013-03-04 19:36:00,
2013-03-04 14:37:00,37.9,17.4,29.80,ESE,113,3.0,9.0,43,0.00,,,0.00,Wunderground v.1.12,2013-03-04 19:37:00,
2013-03-04 14:41:00,37.5,17.5,29.80,ENE,63,2.0,5.0,44,0.00,,,0.00,Wunderground v.1.12,2013-03-04 19:41:00,
2013-03-04 14:42:00,38.0,18.0,29.80,SE,135,5.0,14.0,44,0.00,,,0.00,Wunderground v.1.12,2013-03-04 19:42:00,
2013-03-04 14:46:00,38.0,18.0,29.80,SE,135,12.0,12.0,44,0.00,,,0.00,Wunderground v.1.12,2013-03-04 19:46:00,
2013-03-04 14:47:00,38.2,17.1,29.80,ESE,113,5.0,14.0,42,0.00,,,0.00,Wunderground v.1.12,2013-03-04 19:47:00,
2013-03-04 14:51:00,38.2,18.2,29.80,ESE,104,1.0,5.0,44,0.00,,,0.00,Wunderground v.1.12,2013-03-04 19:51:00,
2013-03-04 14:52:00,37.8,17.3,29.80,ESE,113,6.0,14.0,43,0.00,,,0.00,Wunderground v.1.12,2013-03-04 19:52:00,
2013-03-04 14:56:00,38.2,17.1,29.80,SE,141,7.0,11.0,42,0.00,,,0.00,Wunderground v.1.12,2013-03-04 19:56:00,
2013-03-04 14:57:00,38.0,17.5,29.80,ESE,113,7.0,13.0,43,0.00,,,0.00,Wunderground v.1.12,2013-03-04 19:57:00,
2013-03-04 15:01:00,37.8,17.3,29.80,SE,132,5.0,12.0,43,0.00,,,0.00,Wunderground v.1.12,2013-03-04 20:01:00,
2013-03-04 15:02:00,37.9,17.9,29.81,ESE,113,7.0,15.0,44,0.00,,,0.00,Wunderground v.1.12,2013-03-04 20:02:00,
2013-03-04 15:06:00,38.0,17.5,29.80,ENE,73,1.0,9.0,43,0.00,,,0.00,Wunderground v.1.12,2013-03-04 20:06:00,
2013-03-04 15:07:00,37.9,17.4,29.81,ESE,113,5.0,11.0,43,0.00,,,0.00,Wunderground v.1.12,2013-03-04 20:07:00,
2013-03-04 15:12:00,37.9,16.8,29.81,East,96,5.0,13.0,42,0.00,,,0.00,Wunderground v.1.12,2013-03-04 20:12:00,
2013-03-04 15:17:00,38.0,17.5,29.81,SE,138,10.0,13.0,43,0.00,,,0.00,Wunderground v.1.12,2013-03-04 20:17:00,
2013-03-04 15:22:00,37.6,16.5,29.81,ENE,77,2.0,13.0,42,0.00,,,0.00,Wunderground v.1.12,2013-03-04 20:22:00,
2013-03-04 15:27:00,37.9,17.4,29.80,ESE,119,7.0,7.0,43,0.00,,,0.00,Wunderground v.1.12,2013-03-04 20:27:00,
2013-03-04 15:32:00,38.0,16.9,29.80,ESE,108,3.0,12.0,42,0.00,,,0.00,Wunderground v.1.12,2013-03-04 20:32:00,
2013-03-04 15:37:00,38.0,16.9,29.80,ESE,117,9.0,10.0,42,0.00,,,0.00,Wunderground v.1.12,2013-03-04 20:37:00,
2013-03-04 15:42:00,38.0,17.5,29.80,East,92,3.0,6.0,43,0.00,,,0.00,Wunderground v.1.12,2013-03-04 20:42:00,
2013-03-04 15:47:00,38.5,17.4,29.80,East,94,2.0,5.0,42,0.00,,,0.00,Wunderground v.1.12,2013-03-04 20:47:00,
2013-03-04 15:52:00,38.2,17.1,29.80,NE,45,4.0,14.0,42,0.00,,,0.00,Wunderground v.1.12,2013-03-04 20:52:00,
2013-03-04 15:57:00,37.9,17.4,29.81,NNE,23,7.0,10.0,43,0.00,,,0.00,Wunderground v.1.12,2013-03-04 20:57:00,
2013-03-04 16:02:00,37.8,17.3,29.81,SE,141,4.0,11.0,43,0.00,,,0.00,Wunderground v.1.12,2013-03-04 21:02:00,
2013-03-04 16:07:00,37.8,17.3,29.81,SE,138,4.0,11.0,43,0.00,,,0.00,Wunderground v.1.12,2013-03-04 21:07:00,
2013-03-04 16:12:00,37.8,17.3,29.81,ENE,68,4.0,12.0,43,0.00,,,0.00,Wunderground v.1.12,2013-03-04 21:12:00,
2013-03-04 16:17:00,37.8,17.3,29.81,SE,135,5.0,11.0,43,0.00,,,0.00,Wunderground v.1.12,2013-03-04 21:17:00,
2013-03-04 16:18:00,37.6,17.1,29.81,SE,129,4.0,12.0,43,0.00,,,0.00,Wunderground v.1.12,2013-03-04 21:18:00,
2013-03-04 16:22:00,37.8,17.3,29.81,SE,135,3.0,9.0,43,0.00,,,0.00,Wunderground v.1.12,2013-03-04 21:22:00,
2013-03-04 16:23:00,37.8,17.8,29.81,ESE,113,11.0,11.0,44,0.00,,,0.00,Wunderground v.1.12,2013-03-04 21:23:00,
2013-03-04 16:27:00,37.6,17.1,29.81,ESE,113,4.0,10.0,43,0.00,,,0.00,Wunderground v.1.12,2013-03-04 21:27:00,
2013-03-04 16:28:00,37.8,17.3,29.81,South,174,2.0,6.0,43,0.00,,,0.00,Wunderground v.1.12,2013-03-04 21:28:00,
2013-03-04 16:32:00,37.0,17.1,29.82,ESE,113,7.0,11.0,44,0.00,,,0.00,Wunderground v.1.12,2013-03-04 21:32:00,
2013-03-04 16:33:00,37.6,17.1,29.81,East,92,5.0,6.0,43,0.00,,,0.00,Wunderground v.1.12,2013-03-04 21:33:00,
2013-03-04 16:37:00,36.9,17.0,29.82,ESE,113,5.0,12.0,44,0.00,,,0.00,Wunderground v.1.12,2013-03-04 21:37:00,
2013-03-04 16:38:00,37.5,17.5,29.81,ESE,109,11.0,11.0,44,0.00,,,0.00,Wunderground v.1.12,2013-03-04 21:38:00,
2013-03-04 16:42:00,36.8,17.4,29.82,East,90,7.0,13.0,45,0.00,,,0.00,Wunderground v.1.12,2013-03-04 21:42:00,
2013-03-04 16:43:00,37.0,17.6,29.82,SE,134,3.0,11.0,45,0.00,,,0.00,Wunderground v.1.12,2013-03-04 21:43:00,
2013-03-04 16:47:00,36.5,17.1,29.82,ESE,113,7.0,17.0,45,0.00,,,0.00,Wunderground v.1.12,2013-03-04 21:47:00,
2013-03-04 16:48:00,36.9,17.0,29.82,ENE,57,10.0,12.0,44,0.00,,,0.00,Wunderground v.1.12,2013-03-04 21:48:00,
2013-03-04 16:52:00,36.0,17.2,29.82,ESE,113,6.0,15.0,46,0.00,,,0.00,Wunderground v.1.12,2013-03-04 21:52:00,
2013-03-04 16:54:00,36.5,17.1,29.82,ENE,78,10.0,13.0,45,0.00,,,0.00,Wunderground v.1.12,2013-03-04 21:54:00,
2013-03-04 16:57:00,35.5,16.7,29.82,ESE,113,7.0,14.0,46,0.00,,,0.00,Wunderground v.1.12,2013-03-04 21:57:00,
2013-03-04 16:59:00,36.2,17.4,29.82,SE,133,5.0,12.0,46,0.00,,,0.00,Wunderground v.1.12,2013-03-04 21:59:00,
2013-03-04 17:02:00,35.2,17.0,29.84,ESE,113,5.0,14.0,47,0.00,,,0.00,Wunderground v.1.12,2013-03-04 22:02:00,
2013-03-04 17:04:00,35.6,16.8,29.82,ESE,113,3.0,13.0,46,0.00,,,0.00,Wunderground v.1.12,2013-03-04 22:04:00,
2013-03-04 17:07:00,34.9,17.2,29.84,ESE,113,7.0,17.0,48,0.00,,,0.00,Wunderground v.1.12,2013-03-04 22:07:00,
2013-03-04 17:09:00,35.3,17.1,29.82,East,88,6.0,13.0,47,0.00,,,0.00,Wunderground v.1.12,2013-03-04 22:09:00,
2013-03-04 17:12:00,34.6,16.9,29.84,ESE,113,4.0,8.0,48,0.00,,,0.00,Wunderground v.1.12,2013-03-04 22:12:00,
2013-03-04 17:14:00,34.9,17.2,29.84,ENE,67,5.0,17.0,48,0.00,,,0.00,Wunderground v.1.12,2013-03-04 22:14:00,
2013-03-04 17:17:00,34.1,16.9,29.85,SE,135,7.0,15.0,49,0.00,,,0.00,Wunderground v.1.12,2013-03-04 22:17:00,
2013-03-04 17:19:00,34.7,17.0,29.84,ESE,117,6.0,7.0,48,0.00,,,0.00,Wunderground v.1.12,2013-03-04 22:19:00,
2013-03-04 17:22:00,33.8,17.1,29.85,ESE,113,6.0,13.0,50,0.00,,,0.00,Wunderground v.1.12,2013-03-04 22:22:00,
2013-03-04 17:24:00,34.1,16.4,29.84,SSE,163,5.0,12.0,48,0.00,,,0.00,Wunderground v.1.12,2013-03-04 22:24:00,
2013-03-04 17:27:00,33.7,17.0,29.85,SE,135,6.0,13.0,50,0.00,,,0.00,Wunderground v.1.12,2013-03-04 22:27:00,
2013-03-04 17:29:00,34.0,17.3,29.85,ESE,115,3.0,11.0,50,0.00,,,0.00,Wunderground v.1.12,2013-03-04 22:29:00,
2013-03-04 17:32:00,33.4,16.7,29.86,SE,135,6.0,15.0,50,0.00,,,0.00,Wunderground v.1.12,2013-03-04 22:32:00,
2013-03-04 17:34:00,33.7,17.0,29.85,ESE,116,3.0,13.0,50,0.00,,,0.00,Wunderground v.1.12,2013-03-04 22:34:00,
2013-03-04 17:37:00,33.2,17.0,29.86,ESE,113,5.0,14.0,51,0.00,,,0.00,Wunderground v.1.12,2013-03-04 22:37:00,
2013-03-04 17:39:00,33.5,16.8,29.85,East,79,8.0,10.0,50,0.00,,,0.00,Wunderground v.1.12,2013-03-04 22:39:00,
2013-03-04 17:42:00,33.1,16.9,29.86,SE,135,2.0,8.0,51,0.00,,,0.00,Wunderground v.1.12,2013-03-04 22:42:00,
2013-03-04 17:44:00,33.4,17.2,29.86,ESE,119,11.0,15.0,51,0.00,,,0.00,Wunderground v.1.12,2013-03-04 22:44:00,
2013-03-04 17:47:00,32.8,17.1,29.86,ESE,113,4.0,11.0,52,0.00,,,0.00,Wunderground v.1.12,2013-03-04 22:47:00,
2013-03-04 17:49:00,33.1,16.9,29.86,SE,136,1.0,8.0,51,0.00,,,0.00,Wunderground v.1.12,2013-03-04 22:49:00,
2013-03-04 17:52:00,32.8,17.1,29.86,ESE,113,5.0,14.0,52,0.00,,,0.00,Wunderground v.1.12,2013-03-04 22:52:00,
2013-03-04 17:54:00,32.9,17.2,29.86,East,96,3.0,11.0,52,0.00,,,0.00,Wunderground v.1.12,2013-03-04 22:54:00,
2013-03-04 17:57:00,32.7,17.0,29.86,SSE,158,4.0,16.0,52,0.00,,,0.00,Wunderground v.1.12,2013-03-04 22:57:00,
2013-03-04 18:00:00,32.8,17.1,29.86,SE,136,6.0,9.0,52,0.00,,,0.00,Wunderground v.1.12,2013-03-04 23:00:00,
2013-03-04 18:02:00,32.4,17.2,29.86,SE,135,2.0,10.0,53,0.00,,,0.00,Wunderground v.1.12,2013-03-04 23:02:00,
2013-03-04 18:05:00,32.7,17.0,29.86,East,92,3.0,15.0,52,0.00,,,0.00,Wunderground v.1.12,2013-03-04 23:05:00,
2013-03-04 18:07:00,32.4,17.6,29.86,SE,135,4.0,12.0,54,0.00,,,0.00,Wunderground v.1.12,2013-03-04 23:07:00,
2013-03-04 18:10:00,32.4,17.2,29.86,SE,145,3.0,7.0,53,0.00,,,0.00,Wunderground v.1.12,2013-03-04 23:10:00,
2013-03-04 18:12:00,32.4,17.6,29.86,ESE,113,5.0,12.0,54,0.00,,,0.00,Wunderground v.1.12,2013-03-04 23:12:00,
2013-03-04 18:15:00,32.4,17.6,29.86,ENE,75,5.0,9.0,54,0.00,,,0.00,Wunderground v.1.12,2013-03-04 23:15:00,
2013-03-04 18:17:00,32.2,17.4,29.87,ESE,113,3.0,7.0,54,0.00,,,0.00,Wunderground v.1.12,2013-03-04 23:17:00,
2013-03-04 18:20:00,32.4,17.6,29.86,ESE,119,11.0,11.0,54,0.00,,,0.00,Wunderground v.1.12,2013-03-04 23:20:00,
2013-03-04 18:22:00,32.2,17.4,29.87,ENE,68,4.0,10.0,54,0.00,,,0.00,Wunderground v.1.12,2013-03-04 23:22:00,
2013-03-04 18:25:00,32.2,17.4,29.87,East,101,3.0,4.0,54,0.00,,,0.00,Wunderground v.1.12,2013-03-04 23:25:00,
2013-03-04 18:27:00,32.2,17.4,29.87,East,90,4.0,11.0,54,0.00,,,0.00,Wunderground v.1.12,2013-03-04 23:27:00,
2013-03-04 18:30:00,32.2,17.4,29.87,East,85,4.0,4.0,54,0.00,,,0.00,Wunderground v.1.12,2013-03-04 23:30:00,
2013-03-04 18:32:00,32.1,17.7,29.88,SE,135,4.0,11.0,55,0.00,,,0.00,Wunderground v.1.12,2013-03-04 23:32:00,
2013-03-04 18:35:00,32.2,17.4,29.87,ESE,109,9.0,9.0,54,0.00,,,0.00,Wunderground v.1.12,2013-03-04 23:35:00,
2013-03-04 18:37:00,32.1,17.7,29.88,ESE,113,4.0,10.0,55,0.00,,,0.00,Wunderground v.1.12,2013-03-04 23:37:00,
2013-03-04 18:40:00,32.1,17.7,29.88,ENE,68,3.0,4.0,55,0.00,,,0.00,Wunderground v.1.12,2013-03-04 23:40:00,
2013-03-04 18:42:00,31.9,18.0,29.88,East,90,4.0,11.0,56,0.00,,,0.00,Wunderground v.1.12,2013-03-04 23:42:00,
2013-03-04 18:45:00,32.1,17.7,29.88,ESE,104,5.0,6.0,55,0.00,,,0.00,Wunderground v.1.12,2013-03-04 23:45:00,
2013-03-04 18:47:00,31.9,18.0,29.88,ESE,113,4.0,9.0,56,0.00,,,0.00,Wunderground v.1.12,2013-03-04 23:47:00,
2013-03-04 18:50:00,31.9,18.0,29.88,SE,134,4.0,5.0,56,0.00,,,0.00,Wunderground v.1.12,2013-03-04 23:50:00,
2013-03-04 18:52:00,32.1,18.2,29.88,SE,135,5.0,10.0,56,0.00,,,0.00,Wunderground v.1.12,2013-03-04 23:52:00,
2013-03-04 18:55:00,31.9,18.0,29.88,ESE,104,3.0,4.0,56,0.00,,,0.00,Wunderground v.1.12,2013-03-04 23:55:00,
2013-03-04 18:57:00,32.1,18.2,29.88,ESE,113,5.0,9.0,56,0.00,,,0.00,Wunderground v.1.12,2013-03-04 23:57:00,
2013-03-04 19:00:00,31.9,18.0,29.88,East,98,5.0,6.0,56,0.00,,,0.00,Wunderground v.1.12,2013-03-05 00:00:00,
2013-03-04 19:02:00,32.1,18.2,29.88,SE,135,6.0,11.0,56,0.00,,,0.00,Wunderground v.1.12,2013-03-05 00:02:00,
2013-03-04 19:05:00,32.1,18.2,29.88,SSE,158,8.0,8.0,56,0.00,,,0.00,Wunderground v.1.12,2013-03-05 00:05:00,
2013-03-04 19:07:00,32.1,18.2,29.88,ESE,113,7.0,16.0,56,0.00,,,0.00,Wunderground v.1.12,2013-03-05 00:07:00,
2013-03-04 19:10:00,32.1,18.2,29.88,SSE,160,7.0,10.0,56,0.00,,,0.00,Wunderground v.1.12,2013-03-05 00:10:00,
2013-03-04 19:12:00,32.1,18.6,29.88,ESE,113,7.0,16.0,57,0.00,,,0.00,Wunderground v.1.12,2013-03-05 00:12:00,
2013-03-04 19:15:00,32.1,18.2,29.88,SE,138,16.0,16.0,56,0.00,,,0.00,Wunderground v.1.12,2013-03-05 00:15:00,
2013-03-04 19:17:00,32.1,18.6,29.89,ESE,113,7.0,15.0,57,0.00,,,0.00,Wunderground v.1.12,2013-03-05 00:17:00,
2013-03-04 19:20:00,32.1,18.6,29.88,East,86,10.0,10.0,57,0.00,,,0.00,Wunderground v.1.12,2013-03-05 00:20:00,
2013-03-04 19:22:00,32.1,19.0,29.89,ESE,113,8.0,16.0,58,0.00,,,0.00,Wunderground v.1.12,2013-03-05 00:22:00,
2013-03-04 19:25:00,32.1,18.6,29.89,ENE,66,9.0,10.0,57,0.00,,,0.00,Wunderground v.1.12,2013-03-05 00:25:00,
2013-03-04 19:27:00,31.9,18.8,29.89,SE,135,8.0,18.0,58,0.00,,,0.00,Wunderground v.1.12,2013-03-05 00:27:00,
2013-03-04 19:30:00,32.1,19.0,29.89,SE,127,5.0,9.0,58,0.00,,,0.00,Wunderground v.1.12,2013-03-05 00:30:00,
2013-03-04 19:32:00,31.9,18.8,29.89,ESE,113,8.0,15.0,58,0.00,,,0.00,Wunderground v.1.12,2013-03-05 00:32:00,
2013-03-04 19:36:00,31.9,18.8,29.89,East,88,11.0,11.0,58,0.00,,,0.00,Wunderground v.1.12,2013-03-05 00:36:00,
2013-03-04 19:37:00,31.8,18.7,29.89,East,90,6.0,13.0,58,0.00,,,0.00,Wunderground v.1.12,2013-03-05 00:37:00,
2013-03-04 19:41:00,31.9,18.8,29.89,SE,142,3.0,8.0,58,0.00,,,0.00,Wunderground v.1.12,2013-03-05 00:41:00,
2013-03-04 19:42:00,31.8,19.1,29.89,SE,135,6.0,13.0,59,0.00,,,0.00,Wunderground v.1.12,2013-03-05 00:42:00,
2013-03-04 19:46:00,31.8,18.7,29.89,East,93,5.0,9.0,58,0.00,,,0.00,Wunderground v.1.12,2013-03-05 00:46:00,
2013-03-04 19:47:00,31.8,19.1,29.89,East,90,6.0,15.0,59,0.00,,,0.00,Wunderground v.1.12,2013-03-05 00:47:00,
2013-03-04 19:51:00,31.8,19.1,29.89,East,80,3.0,7.0,59,0.00,,,0.00,Wunderground v.1.12,2013-03-05 00:51:00,
2013-03-04 19:52:00,31.8,19.1,29.89,ESE,113,5.0,11.0,59,0.00,,,0.00,Wunderground v.1.12,2013-03-05 00:52:00,
2013-03-04 19:56:00,31.8,19.1,29.89,SE,143,9.0,12.0,59,0.00,,,0.00,Wunderground v.1.12,2013-03-05 00:56:00,
2013-03-04 19:57:00,31.8,19.5,29.89,ESE,113,6.0,13.0,60,0.00,,,0.00,Wunderground v.1.12,2013-03-05 00:57:00,
2013-03-04 20:01:00,31.8,19.1,29.89,SE,129,4.0,7.0,59,0.00,,,0.00,Wunderground v.1.12,2013-03-05 01:01:00,
2013-03-04 20:02:00,31.6,19.3,29.89,SE,135,6.0,13.0,60,0.00,,,0.00,Wunderground v.1.12,2013-03-05 01:02:00,
2013-03-04 20:06:00,31.8,19.5,29.89,ENE,62,9.0,9.0,60,0.00,,,0.00,Wunderground v.1.12,2013-03-05 01:06:00,
2013-03-04 20:07:00,31.6,19.3,29.89,SE,135,4.0,12.0,60,0.00,,,0.00,Wunderground v.1.12,2013-03-05 01:07:00,
2013-03-04 20:11:00,31.6,19.3,29.89,SE,140,10.0,12.0,60,0.00,,,0.00,Wunderground v.1.12,2013-03-05 01:11:00,
2013-03-04 20:12:00,31.6,19.3,29.89,East,90,4.0,8.0,60,0.00,,,0.00,Wunderground v.1.12,2013-03-05 01:12:00,
2013-03-04 20:16:00,31.6,19.3,29.89,East,97,5.0,7.0,60,0.00,,,0.00,Wunderground v.1.12,2013-03-05 01:16:00,
2013-03-04 20:17:00,31.5,19.2,29.90,ESE,113,5.0,10.0,60,0.00,,,0.00,Wunderground v.1.12,2013-03-05 01:17:00,
2013-03-04 20:21:00,31.5,19.2,29.89,East,95,2.0,6.0,60,0.00,,,0.00,Wunderground v.1.12,2013-03-05 01:21:00,
2013-03-04 20:22:00,31.3,19.0,29.90,SE,135,6.0,12.0,60,0.00,,,0.00,Wunderground v.1.12,2013-03-05 01:22:00,
2013-03-04 20:26:00,31.5,19.2,29.90,ENE,76,2.0,6.0,60,0.00,,,0.00,Wunderground v.1.12,2013-03-05 01:26:00,
2013-03-04 20:27:00,31.3,19.0,29.90,ESE,113,5.0,13.0,60,0.00,,,0.00,Wunderground v.1.12,2013-03-05 01:27:00,
2013-03-04 20:31:00,31.3,19.0,29.90,ESE,121,2.0,9.0,60,0.00,,,0.00,Wunderground v.1.12,2013-03-05 01:31:00,
2013-03-04 20:32:00,31.2,18.9,29.91,SE,135,5.0,11.0,60,0.00,,,0.00,Wunderground v.1.12,2013-03-05 01:32:00,
2013-03-04 20:36:00,31.3,19.0,29.90,ENE,76,3.0,6.0,60,0.00,,,0.00,Wunderground v.1.12,2013-03-05 01:36:00,
2013-03-04 20:37:00,31.2,19.3,29.91,ESE,113,3.0,8.0,61,0.00,,,0.00,Wunderground v.1.12,2013-03-05 01:37:00,
2013-03-04 20:41:00,31.2,18.9,29.91,ESE,109,4.0,9.0,60,0.00,,,0.00,Wunderground v.1.12,2013-03-05 01:41:00,
2013-03-04 20:42:00,31.2,19.3,29.91,ESE,113,3.0,7.0,61,0.00,,,0.00,Wunderground v.1.12,2013-03-05 01:42:00,
2013-03-04 20:46:00,31.2,19.3,29.91,SSE,153,3.0,6.0,61,0.00,,,0.00,Wunderground v.1.12,2013-03-05 01:46:00,
2013-03-04 20:47:00,31.2,19.3,29.91,SE,135,4.0,12.0,61,0.00,,,0.00,Wunderground v.1.12,2013-03-05 01:47:00,
2013-03-04 20:51:00,31.2,19.3,29.91,ESE,116,5.0,9.0,61,0.00,,,0.00,Wunderground v.1.12,2013-03-05 01:51:00,
2013-03-04 20:52:00,31.0,19.1,29.91,SSE,158,3.0,9.0,61,0.00,,,0.00,Wunderground v.1.12,2013-03-05 01:52:00,
2013-03-04 20:57:00,31.2,19.3,29.91,SE,146,2.0,8.0,61,0.00,,,0.00,Wunderground v.1.12,2013-03-05 01:57:00,
2013-03-04 21:02:00,31.0,19.1,29.91,ESE,102,0.0,9.0,61,0.00,,,0.00,Wunderground v.1.12,2013-03-05 02:02:00,
2013-03-04 21:07:00,31.0,19.1,29.91,SSE,151,1.0,4.0,61,0.00,,,0.00,Wunderground v.1.12,2013-03-05 02:07:00,
2013-03-04 21:12:00,31.0,19.1,29.91,SSE,155,6.0,6.0,61,0.00,,,0.00,Wunderground v.1.12,2013-03-05 02:12:00,
2013-03-04 21:17:00,30.9,19.0,29.91,SE,144,1.0,9.0,61,0.00,,,0.00,Wunderground v.1.12,2013-03-05 02:17:00,
2013-03-04 21:22:00,30.9,19.0,29.91,ESE,114,3.0,6.0,61,0.00,,,0.00,Wunderground v.1.12,2013-03-05 02:22:00,
2013-03-04 21:27:00,30.7,19.2,29.91,ESE,106,5.0,9.0,62,0.00,,,0.00,Wunderground v.1.12,2013-03-05 02:27:00,
2013-03-04 21:32:00,30.7,19.2,29.91,SSE,150,5.0,7.0,62,0.00,,,0.00,Wunderground v.1.12,2013-03-05 02:32:00,
2013-03-04 21:37:00,30.6,19.1,29.91,SE,130,4.0,14.0,62,0.00,,,0.00,Wunderground v.1.12,2013-03-05 02:37:00,
2013-03-04 21:42:00,30.4,18.9,29.91,ESE,118,4.0,9.0,62,0.00,,,0.00,Wunderground v.1.12,2013-03-05 02:42:00,
2013-03-04 21:47:00,30.4,18.9,29.91,ESE,122,4.0,15.0,62,0.00,,,0.00,Wunderground v.1.12,2013-03-05 02:47:00,
2013-03-04 21:52:00,30.3,18.8,29.91,South,188,6.0,11.0,62,0.00,,,0.00,Wunderground v.1.12,2013-03-05 02:52:00,
2013-03-04 21:57:00,30.3,18.8,29.92,East,96,4.0,6.0,62,0.00,,,0.00,Wunderground v.1.12,2013-03-05 02:57:00,
2013-03-04 22:02:00,30.3,19.2,29.92,ESE,112,4.0,8.0,63,0.00,,,0.00,Wunderground v.1.12,2013-03-05 03:02:00,
2013-03-04 22:07:00,30.1,19.0,29.92,ESE,112,1.0,8.0,63,0.00,,,0.00,Wunderground v.1.12,2013-03-05 03:07:00,
2013-03-04 22:12:00,30.1,19.0,29.92,SE,124,3.0,7.0,63,0.00,,,0.00,Wunderground v.1.12,2013-03-05 03:12:00,
2013-03-04 22:17:00,30.0,18.9,29.92,SE,135,4.0,11.0,63,0.00,,,0.00,Wunderground v.1.12,2013-03-05 03:17:00,
2013-03-04 22:18:00,30.1,19.0,29.92,ESE,112,4.0,11.0,63,0.00,,,0.00,Wunderground v.1.12,2013-03-05 03:18:00,
2013-03-04 22:22:00,30.0,18.9,29.92,ESE,113,4.0,11.0,63,0.00,,,0.00,Wunderground v.1.12,2013-03-05 03:22:00,
2013-03-04 22:23:00,30.0,18.9,29.92,SSE,154,10.0,11.0,63,0.00,,,0.00,Wunderground v.1.12,2013-03-05 03:23:00,
2013-03-04 22:27:00,30.0,19.3,29.92,ESE,113,4.0,10.0,64,0.00,,,0.00,Wunderground v.1.12,2013-03-05 03:27:00,
2013-03-04 22:28:00,30.0,18.9,29.92,SE,140,3.0,6.0,63,0.00,,,0.00,Wunderground v.1.12,2013-03-05 03:28:00,
2013-03-04 22:32:00,30.0,19.3,29.92,ESE,113,4.0,14.0,64,0.00,,,0.00,Wunderground v.1.12,2013-03-05 03:32:00,
2013-03-04 22:33:00,30.0,18.9,29.92,ESE,103,3.0,8.0,63,0.00,,,0.00,Wunderground v.1.12,2013-03-05 03:33:00,
2013-03-04 22:37:00,29.8,19.1,29.92,SE,135,5.0,14.0,64,0.00,,,0.00,Wunderground v.1.12,2013-03-05 03:37:00,
2013-03-04 22:39:00,30.0,19.3,29.92,SE,140,2.0,7.0,64,0.00,,,0.00,Wunderground v.1.12,2013-03-05 03:39:00,
2013-03-04 22:42:00,29.7,19.0,29.92,ESE,113,4.0,10.0,64,0.00,,,0.00,Wunderground v.1.12,2013-03-05 03:42:00,
2013-03-04 22:44:00,29.8,19.1,29.92,ESE,114,9.0,12.0,64,0.00,,,0.00,Wunderground v.1.12,2013-03-05 03:44:00,
2013-03-04 22:47:00,29.7,19.4,29.93,East,90,4.0,9.0,65,0.00,,,0.00,Wunderground v.1.12,2013-03-05 03:47:00,
2013-03-04 22:49:00,29.8,19.1,29.92,ENE,78,2.0,9.0,64,0.00,,,0.00,Wunderground v.1.12,2013-03-05 03:49:00,
2013-03-04 22:52:00,29.7,19.4,29.93,ESE,113,2.0,10.0,65,0.00,,,0.00,Wunderground v.1.12,2013-03-05 03:52:00,
2013-03-04 22:54:00,29.7,19.0,29.92,East,83,3.0,9.0,64,0.00,,,0.00,Wunderground v.1.12,2013-03-05 03:54:00,
2013-03-04 22:57:00,29.7,19.4,29.93,ESE,113,2.0,11.0,65,0.00,,,0.00,Wunderground v.1.12,2013-03-05 03:57:00,
2013-03-04 22:59:00,29.7,19.4,29.93,SE,124,7.0,7.0,65,0.00,,,0.00,Wunderground v.1.12,2013-03-05 03:59:00,
2013-03-04 23:02:00,29.5,19.2,29.93,SE,135,3.0,9.0,65,0.00,,,0.00,Wunderground v.1.12,2013-03-05 04:02:00,
2013-03-04 23:04:00,29.7,19.4,29.93,ENE,70,2.0,10.0,65,0.00,,,0.00,Wunderground v.1.12,2013-03-05 04:04:00,
2013-03-04 23:07:00,29.5,19.2,29.93,ESE,113,4.0,12.0,65,0.00,,,0.00,Wunderground v.1.12,2013-03-05 04:07:00,
2013-03-04 23:09:00,29.5,19.2,29.93,SE,134,2.0,6.0,65,0.00,,,0.00,Wunderground v.1.12,2013-03-05 04:09:00,
2013-03-04 23:12:00,29.5,19.2,29.93,ESE,113,5.0,15.0,65,0.00,,,0.00,Wunderground v.1.12,2013-03-05 04:12:00,
2013-03-04 23:14:00,29.5,19.2,29.93,ESE,122,1.0,11.0,65,0.00,,,0.00,Wunderground v.1.12,2013-03-05 04:14:00,
2013-03-04 23:17:00,29.5,19.2,29.92,ESE,113,6.0,12.0,65,0.00,,,0.00,Wunderground v.1.12,2013-03-05 04:17:00,
2013-03-04 23:20:00,29.5,19.2,29.93,South,171,2.0,14.0,65,0.00,,,0.00,Wunderground v.1.12,2013-03-05 04:20:00,
2013-03-04 23:22:00,29.5,19.2,29.92,ESE,113,5.0,12.0,65,0.00,,,0.00,Wunderground v.1.12,2013-03-05 04:22:00,
2013-03-04 23:25:00,29.5,19.2,29.93,East,101,3.0,11.0,65,0.00,,,0.00,Wunderground v.1.12,2013-03-05 04:25:00,
2013-03-04 23:27:00,29.5,19.2,29.92,SSE,158,3.0,8.0,65,0.00,,,0.00,Wunderground v.1.12,2013-03-05 04:27:00,
2013-03-04 23:30:00,29.5,19.2,29.93,South,175,6.0,12.0,65,0.00,,,0.00,Wunderground v.1.12,2013-03-05 04:30:00,
2013-03-04 23:32:00,29.5,19.2,29.93,SE,135,2.0,6.0,65,0.00,,,0.00,Wunderground v.1.12,2013-03-05 04:32:00,
2013-03-04 23:35:00,29.5,19.2,29.93,ESE,107,2.0,8.0,65,0.00,,,0.00,Wunderground v.1.12,2013-03-05 04:35:00,
2013-03-04 23:37:00,29.5,19.2,29.93,SE,135,1.0,3.0,65,0.00,,,0.00,Wunderground v.1.12,2013-03-05 04:37:00,
2013-03-04 23:40:00,29.5,19.2,29.93,East,94,0.0,3.0,65,0.00,,,0.00,Wunderground v.1.12,2013-03-05 04:40:00,
2013-03-04 23:42:00,29.5,19.2,29.93,ESE,113,2.0,7.0,65,0.00,,,0.00,Wunderground v.1.12,2013-03-05 04:42:00,
2013-03-04 23:45:00,29.5,19.2,29.93,SSE,155,2.0,2.0,65,0.00,,,0.00,Wunderground v.1.12,2013-03-05 04:45:00,
2013-03-04 23:47:00,29.5,19.5,29.93,South,180,0.0,4.0,66,0.00,,,0.00,Wunderground v.1.12,2013-03-05 04:47:00,
2013-03-04 23:50:00,29.5,19.2,29.93,ESE,114,0.0,1.0,65,0.00,,,0.00,Wunderground v.1.12,2013-03-05 04:50:00,
2013-03-04 23:52:00,29.4,19.1,29.93,SE,135,3.0,9.0,65,0.00,,,0.00,Wunderground v.1.12,2013-03-05 04:52:00,
2013-03-04 23:55:00,29.5,19.5,29.93,South,182,0.0,1.0,66,0.00,,,0.00,Wunderground v.1.12,2013-03-05 04:55:00,
2013-03-04 23:57:00,29.4,19.4,29.93,East,90,2.0,7.0,66,0.00,,,0.00,Wunderground v.1.12,2013-03-05 04:57:00,